Location: ????????
(55.6333°N, 37.7000°E)
Time: 00:05:19
(UTC+00:00)

Resurs 1-4 Rocket - Pass Details

Date: 24 May 2026
Orbit: 797 x 813 km, 98.8° (Epoch: 10 June)

Event Time Altitude Azimuth Distance (km) Brightness Sun altitude
Rises 22:45:55 0° 27° (NNE) 3,323 7.3 -11.6°
Reaches altitude 10° 22:49:23 10° 50° (NE) 2,384 5.5 -11.4°
Maximum altitude 22:52:18 15° 84° (E) 2,058 4.6 -11.3°
Drops below altitude 10° 22:55:11 10° 118° (ESE) 2,372 4.5 -11.2°
Sets 22:58:36 0° 142° (SE) 3,295 5.0 -11.0°
